www.pogodaiklimat.ru

Погода и климат >> Архив погоды >> Бразилия >> Минас-Жерайс >> Формига


ПОГОДА в Формиге

  • Прогноз погоды в Формиге
  • Монитор погоды в Формиге

АРХИВ ПОГОДЫ в Формиге

Время (UTC), дата Ветер
(напр.,м/с)
 
Видим.   Явления Облачность Т
(С)
Тd
(С)
f
(%)
Тe
(С)
Тes
(С)
Комфортность P
(гПа)
Po
(гПа)
Тmin
(С)
Tmax
(С)
R
(мм)
R24
(мм)
S
(см)
01 12.03 Ю 1
{3}
н/о н/о +19.3 +17.6 90 +22 +22 комфорт 1017.1 917.9
02 12.03 Ю 1
{2}
н/о н/о +18.5 +17.8 96 +21 +21 комфорт 1017.2 917.7
03 12.03 Ю 1
{2}
н/о н/о +18.5 +18.0 97 +21 +21 комфорт 1016.7 917.3
04 12.03 З 1
{2}
н/о н/о +18.4 +18.1 98 +21 +21 комфорт 1016.3 916.9
05 12.03 Ю 1
{1}
н/о н/о +18.2 +18.2 100 +20 +20 1015.7 916.3
06 12.03 штиль 0
{1}
н/о н/о +18.4 +18.3 99 +19 +19 1015.5 916.2
07 12.03 штиль 0
{1}
н/о н/о +18.4 +18.4 100 +19 +19 1015.7 916.3
08 12.03 З 1
{1}
н/о н/о +18.6 +18.5 99 +21 +21 комфорт 1015.8 916.5
09 12.03 Ю 1
{1}
н/о н/о +18.3 +18.3 100 +20 +20 1016.1 916.7
10 12.03 штиль 0
{1}
н/о н/о +19.6 +19.5 99 +22 +22 комфорт 1016.3 917.3
11 12.03 В 1
{2}
н/о н/о +21.6 +18.4 82 +26 +26 душно 1016.1 917.7
12 12.03 В 2
{3}
н/о н/о +23.9 +18.5 72 +28 +28 душно 1015.4 917.8
13 12.03 В 2
{4}
н/о н/о +25.4 +19.3 69 +31 +31 очень
душно
1015.0 917.9
14 12.03 С 2
{4}
н/о н/о +27.7 +18.9 59 +33 +33 очень
душно
1013.9 917.6
15 12.03 С 2
{4}
н/о н/о +28.2 +18.9 57 +33 +33 очень
душно
1013.3 917.2
16 12.03 СВ 1
{4}
н/о н/о +28.0 +17.6 53 +32 +32 душно 1012.2 916.2
17 12.03 СЗ 2
{4}
н/о н/о +29.1 +18.2 52 +34 +34 очень
душно
1010.9 915.3
18 12.03 С 2
{4}
н/о н/о +28.3 +18.6 56 +33 +33 очень
душно
1010.1 914.4
19 12.03 СЗ 2
{3}
н/о н/о +28.0 +18.5 56 +33 +33 очень
душно
1009.7 913.9
20 12.03 СЗ 3
{5}
н/о н/о +22.3 +18.0 77 +27 +27 душно 1011.8 914.1 1
21 12.03 В 1
{5}
н/о н/о +21.1 +18.9 87 +25 +25 комфорт 1013.5 915.2 1
22 12.03 В 1
{1}
н/о н/о +21.2 +19.3 89 +26 +26 душно 1014.0 915.7
23 12.03 штиль 0
{2}
н/о н/о +21.1 +19.4 90 +26 +26 душно 1014.8 916.4
00 13.03 В 1
{2}
н/о н/о +20.9 +18.7 87 +27 +27 душно 1015.7 917.1
01 13.03 В 2
{3}
н/о н/о +21.1 +18.2 84 +25 +25 комфорт 1015.9 917.4
02 13.03 С 1
{3}
н/о н/о +21.1 +17.8 81 +25 +25 комфорт 1015.8 917.3
03 13.03 СЗ 1
{3}
н/о н/о +20.9 +19.5 92 +27 +27 душно 1015.8 917.2
04 13.03 штиль 0
{2}
н/о н/о +20.3 +19.8 97 +24 +24 комфорт 1015.6 916.9
05 13.03 ЮВ 1
{1}
н/о н/о +19.7 +19.4 98 +24 +24 комфорт 1015.2 916.3
06 13.03 штиль 0
{1}
н/о н/о +19.3 +19.2 99 +21 +21 комфорт 1015.0 916.0
07 13.03 В 1
{2}
н/о н/о +19.4 +19.0 98 +23 +23 комфорт 1014.9 915.9
08 13.03 штиль 0
{1}
н/о н/о +19.6 +19.1 97 +22 +22 комфорт 1015.0 916.1
09 13.03 ЮВ 1
{1}
н/о н/о +20.0 +19.2 95 +25 +25 комфорт 1015.3 916.5
10 13.03 штиль 0
{1}
н/о н/о +22.7 +19.6 83 +29 +29 очень
душно
1014.9 917.0
11 13.03 ЮЗ 1
{1}
н/о н/о +22.0 +19.6 86 +28 +28 душно 1016.2 917.9
12 13.03 ЮЗ 1
{2}
н/о н/о +22.2 +19.8 86 +28 +28 душно 1016.6 918.4
13 13.03 ЮЗ 1
{2}
н/о н/о +24.2 +20.4 79 +30 +30 очень
душно
1015.9 918.4
14 13.03 З 1
{2}
н/о н/о +26.8 +20.6 69 +33 +33 очень
душно
1014.8 918.2
15 13.03 Ю 1
{3}
н/о н/о +26.2 +20.2 70 +32 +32 очень
душно
1014.3 917.5
16 13.03 З 2
{3}
н/о н/о +26.5 +19.4 65 +32 +32 очень
душно
1012.8 916.3
17 13.03 СЗ 2
{3}
н/о н/о +26.9 +18.5 60 +32 +32 очень
душно
1012.0 915.7
18 13.03 СЗ 2
{4}
н/о н/о +28.2 +18.7 56 +33 +33 очень
душно
1010.4 914.6
19 13.03 З 2
{4}
н/о н/о +28.2 +18.6 56 +33 +33 очень
душно
1009.3 913.6
20 13.03 СЗ 2
{4}
н/о н/о +27.0 +18.7 60 +32 +32 очень
душно
1009.8 913.7
21 13.03 штиль 0
{2}
н/о н/о +25.1 +19.7 72 +31 +31 очень
душно
1010.9 914.1
22 13.03 штиль 0
{1}
н/о н/о +23.2 +20.2 83 +30 +30 очень
душно
1012.3 914.8
23 13.03 штиль 0
{2}
н/о н/о +23.3 +19.8 81 +30 +30 очень
душно
1013.0 915.5
00 14.03 штиль 0
{1}
н/о н/о +22.2 +20.0 87 +28 +28 душно 1014.1 916.1
01 14.03 штиль 0
{1}
н/о н/о +21.6 +20.0 91 +27 +27 душно 1014.6 916.4
02 14.03 штиль 0
{1}
н/о н/о +21.3 +19.8 91 +26 +26 душно 1014.3 916.0
03 14.03 В 1
{1}
н/о н/о +21.1 +20.0 93 +26 +26 душно 1014.1 915.8
04 14.03 штиль 0
{1}
н/о н/о +21.9 +19.8 88 +28 +28 душно 1013.8 915.7
05 14.03 штиль 0
{1}
н/о н/о +20.4 +19.6 95 +24 +24 комфорт 1014.1 915.5
06 14.03 штиль 0
{1}
н/о н/о +20.5 +20.1 98 +25 +25 комфорт 1013.9 915.4
07 14.03 штиль 0 н/о н/о +20.2 +19.8 98 +24 +24 комфорт 1014.1 915.5
08 14.03 ЮВ 1
{1}
н/о н/о +20.5 +19.6 95 +26 +26 душно 1014.0 915.5
09 14.03 ЮВ 1
{1}
н/о н/о +20.2 +19.5 96 +25 +25 комфорт 1014.8 916.1
10 14.03 штиль 0
{1}
н/о н/о +20.7 +20.1 96 +25 +25 комфорт 1015.4 916.8
11 14.03 В 1
{2}
н/о н/о +23.8 +20.0 79 +29 +29 душно 1015.3 917.7
12 14.03 СЗ 1
{1}
н/о н/о +24.7 +20.1 76 +30 +30 очень
душно
1015.7 918.3
13 14.03 З 1
{2}
н/о н/о +26.0 +20.4 71 +32 +32 очень
душно
1015.2 918.3
14 14.03 З 1
{3}
н/о н/о +28.2 +20.5 63 +35 +35 очень
душно
1013.6 917.5
15 14.03 З 2
{3}
н/о н/о +29.1 +20.3 59 +36 +36 очень
душно
1012.6 916.9
16 14.03 З 6
{9}
н/о н/о +19.7 +18.0 90 +22 +22 комфорт 1016.6 917.6 2
17 14.03 СЗ 1
{9}
н/о н/о +19.0 +19.0 100 +22 +22 комфорт 1015.7 916.5 24
18 14.03 В 1
{2}
н/о н/о +20.0 +20.0 100 +25 +25 комфорт 1014.9 916.1 3
19 14.03 З 1
{2}
н/о н/о +22.4 +21.6 95 +30 +30 очень
душно
1012.9 915.1
20 14.03 штиль 0
{2}
н/о н/о +21.8 +20.3 91 +28 +28 душно 1013.1 915.1
21 14.03 штиль 0
{1}
н/о н/о +21.5 +20.5 94 +27 +27 душно 1013.8 915.6
22 14.03 штиль 0
{1}
н/о н/о +21.4 +20.4 94 +27 +27 душно 1013.8 915.6
23 14.03 штиль 0
{1}
н/о н/о +21.4 +20.3 93 +27 +27 душно 1014.0 915.8
00 15.03 штиль 0
{1}
н/о н/о +20.9 +20.7 99 +26 +26 душно 1014.9 916.4
01 15.03 штиль 0
{1}
н/о н/о +20.6 +20.4 99 +25 +25 комфорт 1016.0 917.3
02 15.03 ЮВ 1
{2}
н/о н/о +20.5 +20.2 98 +26 +26 душно 1015.8 917.1
03 15.03 штиль 0
{2}
н/о н/о +19.9 +19.6 98 +23 +23 комфорт 1015.6 916.7
04 15.03 штиль 0
{1}
н/о н/о +19.4 +19.3 99 +22 +22 комфорт 1015.1 916.1
05 15.03 штиль 0
{1}
н/о н/о +19.2 +19.2 100 +21 +21 комфорт 1014.7 915.7
06 15.03 штиль 0
{2}
н/о н/о +18.5 +18.5 100 +19 +19 1014.5 915.3
07 15.03 штиль 0
{1}
н/о н/о +18.2 +18.2 100 +19 +19 1014.4 915.1
08 15.03 штиль 0 н/о н/о +17.8 +17.8 100 +18 +18 1014.8 915.3
09 15.03 штиль 0
{1}
н/о н/о +17.6 +17.6 100 +18 +18 1015.3 915.7
10 15.03 штиль 0
{1}
н/о н/о +19.7 +19.7 100 +23 +23 комфорт 1015.1 916.2
11 15.03 штиль 0
{1}
н/о н/о +21.0 +19.4 91 +25 +25 комфорт 1015.2 916.7
12 15.03 штиль 0
{1}
н/о н/о +22.8 +19.4 81 +29 +29 очень
душно
1014.8 916.9
13 15.03 ЮВ 1
{1}
н/о н/о +25.6 +19.6 69 +31 +31 очень
душно
1013.8 916.9
14 15.03 Ю 1
{2}
н/о н/о +26.7 +20.2 68 +33 +33 очень
душно
1013.3 916.8
15 15.03 ЮЗ 1
{3}
н/о н/о +28.1 +19.3 59 +34 +34 очень
душно
1012.4 916.4
16 15.03 СВ 1
{2}
н/о н/о +29.3 +20.1 58 +36 +36 очень
душно
1010.8 915.3
17 15.03 Ю 1
{2}
н/о н/о +29.0 +18.8 54 +34 +34 очень
душно
1009.7 914.2
18 15.03 ЮЗ 1
{3}
н/о н/о +25.9 +18.1 62 +30 +30 душно 1010.4 913.9
19 15.03 ЮЗ 1
{2}
н/о н/о +25.3 +20.0 72 +31 +31 очень
душно
1010.5 913.8
20 15.03 З 1
{2}
н/о н/о +24.5 +19.4 73 +30 +30 очень
душно
1011.1 914.1
21 15.03 СЗ 1
{2}
н/о н/о +23.7 +19.3 76 +29 +29 душно 1011.8 914.5
22 15.03 штиль 0
{1}
н/о н/о +22.8 +20.1 85 +29 +29 очень
душно
1012.8 915.1
23 15.03 штиль 0
{1}
н/о н/о +22.7 +20.5 87 +29 +29 очень
душно
1013.6 915.8
00 16.03 штиль 0
{1}
н/о н/о +22.6 +20.9 90 +30 +30 очень
душно
1014.1 916.2
01 16.03 штиль 0
{1}
н/о н/о +22.0 +20.9 93 +28 +28 душно 1014.4 916.3
02 16.03 В 1
{1}
н/о н/о +22.0 +20.8 93 +28 +28 душно 1014.3 916.2
03 16.03 штиль 0
{1}
н/о н/о +21.8 +21.1 96 +28 +28 душно 1014.0 915.9
04 16.03 штиль 0
{1}
н/о н/о +21.6 +20.9 96 +27 +27 душно 1013.4 915.3
05 16.03 Ю 1
{2}
н/о н/о +21.3 +21.1 99 +27 +27 душно 1013.3 915.1
06 16.03 ЮВ 1
{2}
н/о н/о +21.1 +20.8 98 +26 +26 душно 1012.8 914.6
07 16.03 ЮВ 1
{1}
н/о н/о +20.8 +20.5 98 +27 +27 душно 1012.4 914.1 0.2
08 16.03 штиль 0
{1}
н/о н/о +20.3 +20.2 99 +24 +24 комфорт 1012.7 914.2
09 16.03 ЮЗ 1
{1}
н/о н/о +20.1 +20.1 100 +25 +25 комфорт 1013.4 914.8
10 16.03 штиль 0
{1}
н/о н/о +20.4 +20.4 100 +24 +24 комфорт 1014.1 915.5
11 16.03 штиль 0
{1}
н/о н/о +21.7 +21.0 96 +28 +28 душно 1014.5 916.3
12 16.03 ЮВ 1
{2}
н/о н/о +25.0 +20.3 75 +31 +31 очень
душно
1013.6 916.5
13 16.03 В 2
{3}
н/о н/о +26.9 +19.8 65 +33 +33 очень
душно
1012.7 916.3
14 16.03 СВ 2
{4}
н/о н/о +26.3 +19.7 67 +32 +32 очень
душно
1012.8 916.2
15 16.03 В 1
{4}
н/о н/о +25.1 +19.8 72 +31 +31 очень
душно
1012.6 915.7
16 16.03 В 1
{4}
н/о н/о +21.5 +20.6 95 +27 +27 душно 1013.0 914.9 18
17 16.03 СВ 1
{3}
н/о н/о +24.1 +20.7 81 +30 +30 очень
душно
1011.3 914.2 0.4
18 16.03 СВ 1
{3}
н/о н/о +27.9 +19.8 61 +34 +34 очень
душно
1009.2 913.4
19 16.03 В 1
{2}
н/о н/о +28.1 +20.8 65 +35 +35 очень
душно
1008.8 913.1
20 16.03 В 1
{2}
н/о н/о +27.0 +19.7 64 +33 +33 очень
душно
1009.1 913.1
21 16.03 штиль 0
{1}
н/о н/о +25.3 +20.4 74 +31 +31 очень
душно
1010.3 913.6
22 16.03 штиль 0
{1}
н/о н/о +23.6 +22.3 92 +31 +31 очень
душно
1011.8 914.5
23 16.03 штиль 0
{1}
н/о н/о +23.0 +22.0 94 +31 +31 очень
душно
1012.6 915.0
00 17.03 штиль 0
{1}
н/о н/о +22.5 +21.7 95 +30 +30 очень
душно
1013.4 915.6
01 17.03 штиль 0 н/о н/о +22.0 +21.7 98 +29 +29 очень
душно
1014.4 916.3
02 17.03 В 2
{3}
н/о н/о +22.7 +20.5 87 +29 +29 очень
душно
1014.0 916.2
03 17.03 штиль 0
{3}
н/о н/о +21.2 +20.0 93 +26 +26 душно 1014.4 916.1 1
04 17.03 штиль 0
{2}
н/о н/о +20.7 +20.6 99 +25 +25 комфорт 1013.5 915.1 0.4
05 17.03 Ю 1
{1}
н/о н/о +21.0 +20.8 99 +28 +28 очень
душно
1013.7 915.4
06 17.03 ЮЗ 1
{1}
н/о н/о +20.7 +20.7 100 +27 +27 душно 1013.8 915.4
07 17.03 В 1
{2}
н/о н/о +20.6 +20.6 100 +26 +26 душно 1013.4 915.0 3
08 17.03 В 1
{2}
н/о н/о +20.4 +20.4 100 +26 +26 душно 1013.3 914.8 2
09 17.03 штиль 0
{2}
н/о н/о +20.1 +20.1 100 +24 +24 комфорт 1013.5 914.9 0.2
10 17.03 Ю 1
{2}
н/о н/о +20.7 +20.2 97 +27 +27 душно 1014.2 915.7
11 17.03 В 1
{1}
н/о н/о +23.1 +20.2 84 +30 +30 очень
душно
1014.3 916.6
12 17.03 СВ 1
{3}
н/о н/о +26.3 +21.4 74 +33 +33 очень
душно
1013.3 916.7
13 17.03 С 1
{3}
н/о н/о +26.2 +21.4 75 +33 +33 очень
душно
1013.4 916.7
14 17.03 С 2
{4}
н/о н/о +26.6 +20.0 67 +33 +33 очень
душно
1013.0 916.5
15 17.03 СЗ 3
{5}
н/о н/о +27.7 +20.6 65 +34 +34 очень
душно
1011.9 915.8
16 17.03 СЗ 3
{5}
н/о н/о +27.8 +20.9 66 +35 +35 очень
душно
1010.7 914.8
17 17.03 С 3
{6}
н/о н/о +26.7 +21.7 74 +34 +34 очень
душно
1010.4 914.2
18 17.03 СЗ 4
{6}
н/о н/о +26.7 +20.8 70 +33 +33 очень
душно
1009.7 913.5
19 17.03 СЗ 4
{6}
н/о н/о +23.9 +20.5 81 +30 +30 очень
душно
1010.7 913.6
20 17.03 СЗ 2
{6}
н/о н/о +23.4 +20.4 83 +31 +31 очень
душно
1011.2 913.9
21 17.03 СЗ 1
{3}
н/о н/о +23.2 +20.4 84 +30 +30 очень
душно
1011.9 914.4
22 17.03 СЗ 1
{2}
н/о н/о +22.8 +20.3 86 +30 +30 очень
душно
1012.4 914.8
23 17.03 СЗ 1
{2}
н/о н/о +22.6 +19.9 85 +29 +29 очень
душно
1013.2 915.4
00 18.03 штиль 0
{1}
н/о н/о +22.3 +20.3 88 +29 +29 очень
душно
1013.9 916.0
01 18.03 В 1
{1}
н/о н/о +22.2 +20.6 91 +29 +29 очень
душно
1013.7 915.7
02 18.03 штиль 0
{1}
н/о н/о +21.8 +20.5 92 +28 +28 душно 1013.5 915.4
03 18.03 штиль 0
{1}
н/о н/о +21.4 +20.9 97 +27 +27 душно 1013.5 915.3
04 18.03 штиль 0
{1}
н/о н/о +21.3 +20.9 98 +27 +27 душно 1013.3 915.1
05 18.03 штиль 0
{1}
н/о н/о +21.0 +20.7 98 +26 +26 душно 1013.1 914.8
06 18.03 штиль 0
{1}
н/о н/о +21.1 +20.1 94 +26 +26 душно 1013.0 914.8
07 18.03 штиль 0 н/о н/о +20.9 +20.4 97 +26 +26 душно 1012.8 914.5
08 18.03 штиль 0
{1}
н/о н/о +20.7 +20.2 97 +25 +25 комфорт 1013.5 915.1
09 18.03 штиль 0
{1}
н/о н/о +20.5 +20.4 99 +25 +25 комфорт 1013.5 915.0
10 18.03 штиль 0
{1}
н/о н/о +21.8 +21.5 98 +28 +28 душно 1013.5 915.4
11 18.03 СВ 1
{2}
н/о н/о +24.5 +21.0 81 +31 +31 очень
душно
1013.2 916.0
12 18.03 С 2
{2}
н/о н/о +25.5 +20.2 73 +31 +31 очень
душно
1012.8 916.0
13 18.03 С 2
{3}
н/о н/о +26.5 +19.6 66 +32 +32 очень
душно
1012.6 916.1
14 18.03 СЗ 2
{3}
н/о н/о +27.9 +20.8 65 +35 +35 очень
душно
1011.9 915.9
15 18.03 СЗ 2
{4}
н/о н/о +27.9 +20.3 63 +34 +34 очень
душно
1011.4 915.4
16 18.03 СЗ 2
{4}
н/о н/о +29.3 +20.8 60 +36 +36 очень
душно
1009.6 914.2
17 18.03 СЗ 2
{4}
н/о н/о +29.6 +20.1 57 +36 +36 очень
душно
1008.4 913.2
18 18.03 СЗ 2
{4}
н/о н/о +29.1 +19.9 58 +35 +35 очень
душно
1007.7 912.4
19 18.03 З 1
{4}
н/о н/о +26.1 +20.1 70 +32 +32 очень
душно
1008.6 912.3
20 18.03 СЗ 2
{3}
н/о н/о +25.2 +19.8 72 +31 +31 очень
душно
1009.0 912.4
21 18.03 З 1
{3}
н/о н/о +23.9 +18.8 73 +29 +29 душно 1010.0 912.9
22 18.03 СЗ 1
{2}
н/о н/о +23.1 +18.9 77 +29 +29 очень
душно
1010.7 913.3
23 18.03 СЗ 1
{1}
н/о н/о +22.4 +19.2 82 +28 +28 душно 1011.9 914.2
00 19.03 штиль 0
{1}
н/о н/о +22.8 +19.4 81 +29 +29 очень
душно
1012.4 914.8
01 19.03 штиль 0
{1}
н/о н/о +22.4 +20.0 86 +29 +29 очень
душно
1012.6 914.8

 

Местоположение метеостанции Формига (Минас-Жерайс, Бразилия): широта -20.45 долгота -45.45 высота над уровнем моря 880 м.

В архиве по умолчанию представлена погода в Формиге за последнюю неделю. Архивные данные за месяц целиком и за предыдущие месяцы, начиная с января 2011 года, Вы можете получить, выбрав интересующий диапазон дат из раскрывающегося списка и нажав кнопку "Ввод!".


*Определитесь, кто Вы:
робот инопланетянин человек

Внимание! Время в таблицах - всемирное. Для получения местного времени необходимо прибавить поправку, которая равна -3 ч.

Смотрите также архив погоды в соседних городах и на ближайших метеорологических станциях:

Погода в Бамбуи (Минас-Жерайс, Бразилия) (75 км)
Погода в Лаврасе (Минас-Жерайс, Бразилия) (99 км)
Погода в Дорис-ду-Индае (Минас-Жерайс, Бразилия) (109 км)
Погода в Варжинье (Минас-Жерайс, Бразилия) (125 км)
Погода в Флорестале (Минас-Жерайс, Бразилия) (125 км)
Погода в Пассосе (Минас-Жерайс, Бразилия) (127 км)
Погода в Сан-Жуан-дел-Рее (Минас-Жерайс, Бразилия) (144 км)
Погода в Парке Рола-Мока (Минас-Жерайс, Бразилия) (156 км)
Погода в Белу-Оризонти - Пампулья (Минас-Жерайс, Бразилия) (167 км)
Погода в Сет-Лагоасе (Мату-Гросу-ду-Сул, Бразилия) (173 км)

Пояснения к столбцам:

Ветер - указаны скорость ветра в м/с - средняя за 10 мин, порывы в срок и между сроками (в фигурных скобках) и направление, откуда дует ветер: С - северный, СВ - северо-восточный, В - восточный, ЮВ - юго-восточный, Ю - южный, ЮЗ - юго-западный, З - западный, СЗ - северо-западный.
Видимость - горизонтальная дальность видимости в метрах или километрах. При видимости от 1 до 10 км при отсутствии осадков обычно наблюдается дымка, при ухудшении видимости до 1 км и менее - туман. В сухую погоду видимость может ухудшаться дымом, пылью или мглою.
Явления - указаны атмосферные явления, наблюдавшиеся в срок или в последний час перед сроком; фигурными скобками обозначены явления, наблюдавшиеся между сроками (за 1-3 часа до срока); квадратными скобками обозначены град или гололедные отложения с указанием их диаметра в мм.
Облачность - указаны через наклонную черту общая и нижняя облачность в баллах и высота нижней границы облаков в метрах; квадратными скобками обозначены формы облаков: Ci - перистые, Cs - перисто-слоистые, Cc - перисто-кучевые, Ac - высококучевые, As - высокослоистые, Sc - слоисто-кучевые, Ns - слоисто-дождевые, Cu - кучевые, Cb - кучево-дождевые. Подробнее классификацию облаков см. в Атласе облаков (PDF).
T - Температура воздуха - температура, измеренная на высоте 2 м над землей.
Td - Температура точки росы - температура, при понижении до которой содержащийся в воздухе водяной пар достигнет насыщения.
f - Относительная влажность воздуха - влажноcть воздуха, измеренная на высоте 2 м над землей.
Te - Эффективная температура - температура, которую ощущает одетый по сезону человек в тени. Характеристика душности погоды. При расчете учитывается влияние влажности воздуха и скорости ветра на теплоощущения человека.
Tes - Эффективная температура на солнце - температура, которую ощущает человек, с поправкой на солнечный нагрев. Характеристика знойности погоды. Зависит от высоты солнца над горизонтом, облачности и скорости ветра. Ночью, в пасмурную погоду, а также при ветре 12 м/с и более поправка равна нулю.
P - Атмосферное давление - приведенное к уровню моря атмосферное давление.
Po - Атмосферное давление - измеренное на уровне метеостанции атмосферное давление.
Tmin - Минимальная температура - минимум температуры воздуха на высоте 2 м над землей.
Tmax - Максимальная температура - максимум температуры воздуха на высоте 2 м над землей.
R - Количество осадков - Количество выпавших осадков за период времени, мм. При наведении курсора мыши на число - период времени, за который выпало указанное количество осадков.
R24 - Количество осадков - Количество выпавших осадков за 24 часа, мм.
S - Снежный покров - Высота снежного покрова, см. При наведении курсора мыши на число - состояние снежного покрова и степень покрытия местности в баллах.